Regional Weather Roundup
Issued by NWS

Home | Current Version | Previous Version | Text Only | Print | Product List | Glossary Off
Versions: 1 2 3 4 5 6 7 8 9 10 11 12 13 14 15 16 17 18 19 20 21 22 23 24 25 26 27 28 29 30 31 32 33 34 35 36 37 38 39 40 41 42 43 44 45 46 47 48 49 50

000
ASUS43 KMPX 290801
RWRMN
WEATHER ROUNDUP FOR MINNESOTA
NATIONAL WEATHER SERVICE TWIN CITIES/CHANHASSEN MN
300 AM CDT WED MAR 29 2017


NOTE: "FAIR" INDICATES FEW OR NO CLOUDS BELOW 12,000 FEET WITH NO
SIGNIFICANT WEATHER AND/OR OBSTRUCTIONS TO VISIBILITY. N/A MEANS
CURRENT SKY AND/OR WEATHER CONDITIONS ARE NOT AVAILABLE.

MNZ060>063-068>070-290900-
   Twin Cities Metro

CITY           SKY/WX    TMP DP  RH WIND       PRES   REMARKS
TWIN CITIES    MOCLDY    42  32  67 CALM      30.20R
ST PAUL        CLOUDY    41  36  82 CALM      30.21R
CRYSTAL        CLOUDY    37  27  67 CALM      30.19R
BLAINE         PTCLDY    37  30  75 CALM      30.19R
LAKEVILLE      CLOUDY    34  34 100 CALM      30.19R
EDEN PRAIRIE   PTCLDY    43  32  65 CALM      30.18R
SOUTH ST PAUL  CLOUDY    40  32  73 CALM      30.20R
LAKE ELMO      FAIR      34  32  93 CALM      30.21R
$$
MNZ001>005-007-008-013>017-022>024-027-028-290900-
   Northwest Minnesota

CITY           SKY/WX    TMP DP  RH WIND       PRES   REMARKS
BEMIDJI        CLEAR     32  26  77 CALM      30.21S
HALLOCK        PTCLDY    37  30  75 E9        30.19F
ROSEAU         MOCLDY    37  28  70 SE7       30.22F
WARROAD        CLOUDY    34  28  80 E6        30.24F WCI  29
THIEF RVR FALL CLEAR     38  28  67 E9        30.21F
CROOKSTON      CLOUDY    37  30  75 E9        30.20F
FOSSTON        CLOUDY    34  28  80 CALM      30.20F
DETROIT LAKES  CLOUDY    43  30  61 E5        30.19S
MOORHEAD       CLOUDY    39  32  75 NE3       30.18S
PARK RAPIDS    CLOUDY    35  25  66 CALM      30.18F
MAHNOMEN       FAIR      35  29  80 E7        30.18F WCI  29
$$
MNZ006-009>011-018-025>026-290900-
   North Central Minnesota

CITY           SKY/WX    TMP DP  RH WIND       PRES   REMARKS
BAUDETTE       CLEAR     31  23  72 E7        30.24F WCI  24
FLAG ISLAND    PTCLDY    36  19  51 CALM      30.25S
INTL FALLS     CLEAR     31  22  69 E5        30.26S WCI  26
WASKISH        CLEAR     34  27  75 E6        30.23S WCI  29
BIG FORK       CLEAR     36  25  64 CALM      30.24R
LONGVILLE      CLOUDY    36  28  75 E5        30.21R
GRAND RAPIDS   CLOUDY    36  27  69 SE6       30.26R
CRANE LAKE     CLEAR     25  23  93 CALM      30.30S
ORR            CLEAR     34  23  64 CALM      30.24S
COOK           CLEAR     28  25  86 CALM      30.26S
WALKER         FAIR      30  24  77 CALM      30.21S
$$
MNZ012-019>021-037-290900-
   Northeast Minnesota

CITY           SKY/WX    TMP DP  RH WIND       PRES   REMARKS
DULUTH         CLEAR     35  24  64 E16G25    30.26S WCI  25
ELY            CLEAR     27  23  86 CALM      30.28S
HIBBING        PTCLDY    27  24  89 N3        30.25S
EVELETH        CLEAR     32  23  68 NE5       30.27S WCI  28
DULUTH HARBOR  CLEAR     36  34  93 NE15      30.30S
TWO HARBORS    CLEAR     37  27  65 NE9       30.27F
GRAND MARAIS     N/A     35  23  61 NE9       30.35R WCI  28
G MARAIS ARPRT CLEAR     27  18  69 NE9       30.31R WCI  17
$$
MNZ029>031-032-039>041-046>048-054>057-064-290900-
   West Central Minnesota

CITY           SKY/WX    TMP DP  RH WIND       PRES   REMARKS
FERGUS FALLS   PTCLDY    45  30  57 E3        30.21R
WHEATON        CLOUDY    39  37  93 CALM      30.20S
MORRIS         CLOUDY    39  36  87 E5        30.17S
ALEXANDRIA     CLEAR     38  31  76 E3        30.18R
ELBOW LAKE     FAIR      41  37  84 CALM      30.18R
WADENA         PTCLDY    39  27  60 CALM      30.18S
GLENWOOD       CLEAR     43  32  65 NE3       30.19R
APPLETON       CLOUDY    39  36  87 CALM      30.17S
BENSON         CLOUDY    36  28  75 CALM      30.19S
ORTONVILLE     CLOUDY    43  37  81 CALM      30.17S
MADISON        CLOUDY    43  36  75 CALM      30.17S
WILLMAR        FAIR      37  32  81 E3        30.20R
$$
MNZ033>034-036-042>043-049>051-058-059-290900-
   Central Minnesota

CITY           SKY/WX    TMP DP  RH WIND       PRES   REMARKS
ST CLOUD       PTCLDY    34  28  79 E3        30.19R
SAUK CENTRE    FAIR      32  30  92 CALM      30.19R
PAYNESVILLE    PTCLDY    32  32 100 CALM      30.19S
AITKIN         PTCLDY    36  27  69 E3        30.21S
PINE RIVER     PTCLDY    37  28  70 E5        30.23R
BRAINERD       CLEAR     35  27  72 NE3       30.21R
STAPLES        PTCLDY    34  28  80 CALM      30.19R
LONG PRAIRIE   FAIR      34  30  86 CALM      30.19R
LITTLE FALLS   CLEAR     30  28  93 CALM      30.20R
LITCHFIELD     CLOUDY    41  36  81 CALM      30.19R
BUFFALO        CLOUDY    35  29  79 CALM      30.20R
MAPLE LAKE     CLOUDY    35  32  90 CALM      30.20R
HUTCHINSON     PTCLDY    36  33  88 CALM      30.20R
$$
MNZ037-044-045-052-053-290900-
   East Central Minnesota

CITY           SKY/WX    TMP DP  RH WIND       PRES   REMARKS
PRINCETON      CLOUDY    43  28  56 NE5       30.20R
MORA           CLEAR     34  28  80 CALM      30.23R
CAMBRIDGE      PTCLDY    41  28  60 CALM      30.19R
RUSH CITY      CLEAR     37  27  69 NE5       30.21R
MOOSE LAKE     PTCLDY    32  30  93 NE6       30.23S WCI  26
CLOQUET        CLEAR     36  27  69 E9        30.25S
MCGREGOR       PTCLDY    34  30  86 E6        30.23S WCI  29
$$
MNZ071>073-080-081-089-090-097-098-290900-
   Southwest Minnesota

CITY           SKY/WX    TMP DP  RH WIND       PRES   REMARKS
MONTEVIDEO     CLOUDY    39  30  70 CALM      30.18R
GRANITE FALLS  CLOUDY    46  33  60 E5        30.19R
CANBY          MOCLDY    41  36  80 CALM      30.18S
MARSHALL       CLOUDY    38  34  85 CALM      30.17S
REDWOOD FALLS  CLOUDY    45  32  60 E3        30.17S
OLIVIA         CLOUDY    41  32  70 CALM      30.18R
PIPESTONE      MOCLDY    39  30  70 CALM      30.15S
WINDOM         MOCLDY    43  36  75 SE5       30.17R
WORTHINGTON    CLOUDY    40  36  86 E6        30.16S
JACKSON        CLOUDY    37  34  87 E6        30.17R
TRACY          CLOUDY    45  37  72 CALM      30.16S
SLAYTON        CLOUDY    37  34  86 CALM      30.16S
$$
MNZ065>067-074>077-082>085-091>093-290900-
   South Central Minnesota

CITY           SKY/WX    TMP DP  RH WIND       PRES   REMARKS
MANKATO        CLOUDY    42  35  76 E3        30.18S
NEW ULM        CLOUDY    43  34  70 NE3       30.18R
ST JAMES       MOCLDY    41  36  81 CALM      30.19R
FAIRMONT       CLOUDY    42  37  82 CALM      30.18R
GLENCOE        CLOUDY    38  34  86 CALM      30.18R
FARIBAULT      CLOUDY    36  36 100 CALM      30.19R
OWATONNA       CLOUDY    41  34  75 CALM      30.18S
WASECA         CLOUDY    41  36  81 E6        30.19S
ALBERT LEA     PTCLDY    37  34  87 E3        30.17S
$$
MNZ078>079-086>088-094>096-290900-
   Southeast Minnesota

CITY           SKY/WX    TMP DP  RH WIND       PRES   REMARKS
ROCHESTER      PTCLDY    40  34  79 SE10      30.19R
RED WING       CLOUDY    36  28  75 CALM      30.20R
STANTON        CLOUDY    35  33  89 SW3       30.18R
DODGE CENTER   PTCLDY    37  34  87 SE5       30.18S
WINONA         CLOUDY    36  36 100 CALM      30.22R
AUSTIN         CLOUDY    37  34  87 NE3       30.17S
PRESTON        PTCLDY    42  34  73 E6        30.19S
$$
ABBREVIATIONS USED IN REMARKS
   TC - TEMPERATURES IN CELSIUS
  WCI - WIND CHILL INDEX
   HX - HEAT INDEX
  VSB - VISIBILITY
$$




USA.gov is the U.S. government's official web portal to all federal, state and local government web resources and services.